Tracking 17632 objects as of 2-May-2016
HD Live streaming from Space Station
objects crossing your sky now

METEOR 2-6 DEB

Track METEOR 2-6 DEB now!
10-day predictions


NORAD ID: 31406
Int'l Code: 1980-073H
Perigee: 789.5 km
Apogee: 866.9 km
Inclination: 81.2 °
Period: 101.3 minutes
Semi major axis: 7199 km
RCS: 0.0145 m2 (small)
Launch date: September 9, 1980
Source: Commonwealth of Independent States (former USSR) (CIS)
Launch site: PLESETSK MISSILE AND SPACE COMPLEX (PKMTR)

Note: This is SATELLITE DEBRIS
Your satellite tracking list
Your tracking list is empty





NASA's NSSDC Master Catalog

Two Line Element Set (TLE):
1 31406U 80073H   16109.92692715 +.00000842 +00000-0 +37504-3 0  9996
2 31406 081.2196 091.3988 0053781 131.0338 229.5507 14.21279269105306
Source of the keplerian elements: AFSPC

N2YO: 308